Погода в Яксе

Погода в Яксе : погода сейчас, прогноз погоды и архив. Всё, что Вы хотите узнать о погоде в Яксе!

Поиск расширенной информации на нашем сайте:

Другие новости

Новости СМИ2

Главная страница сайта

Новости сайта

03.07.2017

Напоминаем, что на нашем специализированном сайте Метеоцентр.Азия вы можете получить высокодетализированные автоматические прогнозы погоды по пунктам России, СНГ и мира в авиационном формате (включающие направление и скорость ветра, видимость, явления погоды, количество и форму облачности, нижнюю и верхнюю границу облачности).

Рекомендуем: Очень выгодно - історія Дніпропетровська - честные цены!

Погода в Яксе - сегодня

Время (UTC), дата Ветер
(°,м/с) 
Видим.   Явления Облачность Т
(°С)
Тd
(°С)
f(%) Тe
(°С)
Pmin
(гПа)
dP
(гПа)
Po
(мм)
O2
(г/м3)
Тmin Tmax R s Состояние
почвы
00 18.04.18 210 (ЮЗ) 10 км    ясно 
-19.5 -21.3 86 -20  1025  0.5  755  329           
06 18.04.18 250 (З) 10 км    8/0 верхняя 
[Ci sp]
-1.7 -16.2 32 -1  1022.4  -1.3  754  307           
09 18.04.18 250 (З) 10 км    10/0 верхняя 
[Ci sp]
+0.9 -14.8 30 1020.1  -2.1  753  304           
12 18.04.18 260 (З) 10 км    9/0 верхняя 
[Ci sp]
+3.7 -14.1 26 +2  1017  -2.8  751  300           
18 18.04.18 250 (З) 10 км    8/0 средняя, верхняя 
[Ac trans|Ci sp]
-1.8 -12.1 45 -1  1013  -2  747  304           
21 18.04.18 240 (ЮЗ) 10 км    10/0 средняя, верхняя 
[Ac trans|Ci sp]
-0.5 -11.5 43 -1  1010.1  -2.8  745  302           
00 19.04.18 260 (З) 10 км    10/0 средняя 
[Ac As]
+0.5 -9.6 47 1007.9  -2.1  744  300           
06 19.04.18 360 (С) 10 км    10/4 600 м средняя 
[Cu hum|Ac As]
+3.2 -3.4 62 +3  1006.2  -0.4  743  296           
09 19.04.18 320 (СЗ) 10 км    10/5 600 м средняя, верхняя 
[Cu hum|Ac trans|Ci sp]
+5.1 -3.5 54 +5  1005.8  -0.4  742  294           
18 19.04.18 тихо ()   10 км  в посл. час ливневой снег  8/3 600 м кучево-дожд., средняя 
[Cb cap|Ac trans]
-2.6 -2.8 99 -3  1004.8  0.1  741  302           
21 19.04.18 330 (СЗ) 10 км    ясно 
-4.1 -5.6 89 -4  1005.1  0.2  742  304           
00 20.04.18 340 (С) 10 км    ясно 
-6.1 -8.7 82 -8  1005  -0.3  741  306           
03 20.04.18 360 (С) 10 км    9/6 700 м средняя 
[Sc|Ac trans]
-5.3 -7.5 84 -7  1005.5  0.6  742  306  -6.8    0.7  77  равномерный
сухой снег
100% 
18 20.04.18 тихо ()   10 км    6/4 600 м средняя 
[Sc|Ac trans]
-8 -13 67 -8  1008.8  0.2  744  310           
21 20.04.18 тихо ()   10 км    ясно 
-11.7 -14.1 82 -12  1008.5  -0.5  744  314           
00 21.04.18 250 (З) 10 км    8/0 верхняя 
[Ci sp]
-9.4 -13.6 71 -9  1007.6  -0.7  743  311           
03 21.04.18 350 (С) 10 км  в посл. час ливневой снег  9/6 600 м кучево-дожд., средняя 
[Cb cap|Ac trans]
-7 -10.4 77 -8  1007.5  743  308  -11.8    0.0  76  равномерный
сухой снег
100% 
15 21.04.18 020 (С) 10 км    6/3 600 м средняя 
[Cu hum|Ac trans]
-3.3 -12.3 50 -3  1005.5  -0.4  742  304    -0.9  0.0     
18 21.04.18 210 (ЮЗ) 10 км    ясно 
-10.3 -13 81 -10  1006.4  0.4  742  312           
21 21.04.18 тихо ()   10 км    ясно 
-15.2 -16.2 92 -15  1006.7  0.1  742  318           
00 22.04.18 тихо ()   10 км    ясно 
-18.5 -19.8 89 -19  1006.9  -0.1  742  322           
06 22.04.18 090 (В) 10 км    10/0 верхняя 
[Ci sp]
-3.2 -13.3 46 -4  1004.4  -0.9  741  303           
09 22.04.18 060 (СВ) 10 км    9/0 верхняя 
[Cs]
-0.3 -13.5 36 -1  1003.4  -0.8  740  300           
12 22.04.18 100 (В) 10 км    10/3 600 м верхняя 
[Cu hum|Cs]
+1.2 -13 34 -1  1002.8  -0.5  740  298           
18 22.04.18 080 (В) 4000 м  слаб. снег  10/0 средняя 
[As op]
-2.7 -6.7 74 -4  1003.6  -0.3  740  302           
Время (UTC), дата Ветер
(°,м/с) 
Видим.   Явления Облачность Т
(°С)
Тd
(°С)
f(%) Тe
(°С)
Pmin
(гПа)
dP
(гПа)
Po
(мм)
O2
(г/м3)
Тmin Tmax R s Состояние
почвы

Для получения пояснительной информации подведите курсор к названию столбца.

ПОГОДА в Яксе - архив

Всё, что Вы хотите узнать о погоде в Яксе - удобно и подробно!

Выберите нужную дату (начиная с 1 января 2015* года) и нажмите кнопку "Найти".
Будут отображены архивные сводки погоды по пункту Якса, начиная с указанной даты.


Отображать данные в формате CSV (для использования в таблицах Excel)


Внимание! Наш архив погоды предназначен исключительно для личного некоммерческого использования в познавательных целях. Если Вам необходимы официальные справки о состоянии погоды (для производственных, юридических, коммерческих и т.п. целей), обращайтесь в органы Росгидромета.

*Примечание: данная дата относится к архиву по метеостанциям СССР (Россия, СНГ, Балтия).
Архив по метеостанциям Зарубежной Европы и Азии (кроме Китая) хранится 10 дней, по другим регионам земного шара (Китай, Африка, Америка, Австралия, Океания) - 1 день.

Якса - район местоположения метеостанции


Название, широта, долгота, высота метеостанции:
Якса 61.8°ш. 56.8°д. 130 м над ур. моря [Российская Федерация]

Дополнительная информация

В oтличие oт бoльшинства пoгoдных сайтoв мы публикуем пoдрoбную метеoинфoрмацию в детальнoм прoфессиoнальнoм фoрмате.

Характеристики температуры и влажнoсти вoздуха измеряются на высoте 2 м в тени вдали oт зданий и деревьев.
Скoрoсть ветра измеряется на высoте 10 м (на урoвне рoста челoвека скoрoсть ветра ниже в 1.5-2 раза). Если метеoстанция нахoдится в гoрoде или в лесу, тo скoрoсть ветра занижена на 2-4 м/с пo сравнению с oткрытым местoм. Скoрoсть ветра над акватoриями крупных рек и oзёр, а также на вершинах хoлмoв на 2-5 м/с выше, чем в oбычных услoвиях.
Атмoсфернoе давление в разных тoчках местнoсти мoжет значительнo oтличаться oт давления на метеoстанции, в зависимoсти oт услoвий рельефа (при пoдъёме на 10 м давление пoнижается примернo на 1 мм рт.ст.).